Regional Weather Roundup
Issued by NWS Little Rock, AR

Home | Current Version | Previous Version | Text Only | Print | Product List | Glossary On
Versions: 1 2 3 4 5 6 7 8 9 10 11 12 13 14 15 16 17 18 19 20 21 22 23 24 25 26 27 28 29 30 31
000
ASUS44 KLZK 211505
RWRLZK

WEATHER ROUNDUP FOR ARKANSAS
NATIONAL WEATHER SERVICE LITTLE ROCK AR
900 AM CST WED FEB 21 2018

NOTE: "FAIR" INDICATES FEW OR NO CLOUDS BELOW 12,000 FEET WITH NO
SIGNIFICANT WEATHER AND/OR OBSTRUCTIONS TO VISIBILITY.

ARZ001-003-010-029-211600-
NORTHWEST ARKANSAS

CITY           SKY/WX    TMP DP  RH WIND       PRES   REMARKS
FAYETTEVILLE   CLOUDY    30  30 100 NE7       30.40R WCI  23
FORT SMITH     LGT RAIN  38  35  89 W8        30.41R
HARRISON       CLOUDY    30  30 100 NW5       30.40R WCI  25
BENTONVILLE    CLOUDY    27  26  96 NE15      30.41F WCI  15
SILOAM SPGS    CLOUDY    28  26  92 NE8G16    30.41S WCI  20
HIGHFILL       CLOUDY    28  26  92 NE13      30.39R WCI  17
SPRINGDALE     CLOUDY    28  36 100 N6G17     30.42R WCI  22
$$

ARZ004-005-016-211600-
NORTH CENTRAL ARKANSAS

CITY           SKY/WX    TMP DP  RH WIND       PRES   REMARKS
BATESVILLE     LGT RAIN  39  37  92 CALM      30.40R
FLIPPIN        LGT RAIN  34  31  88 NE3       30.42R
MTN HOME       CLOUDY    32  32 100 E8        30.39S WCI  25
$$

ARZ040-041-211600-
WEST CENTRAL ARKANSAS

CITY           SKY/WX    TMP DP  RH WIND       PRES   REMARKS
MENA           CLOUDY    41  39  93 CALM      30.33R
MOUNT IDA      RAIN      42  42 100 CALM      30.33R FOG
$$

ARZ009-017-025-026-028-211600-
NORTHEAST ARKANSAS

CITY           SKY/WX    TMP DP  RH WIND       PRES   REMARKS
JONESBORO      LGT RAIN  42  41  96 NE13      30.38F
NEWPORT        LGT RAIN  41  40  96 NE18      30.37F
WALNUT RIDGE   LGT RAIN  40  38  93 NE18      30.38F FOG
BLYTHEVILLE    LGT RAIN  40 N/A N/A N21       30.42R
NW BLYTHEVILLE LGT RAIN  39  37  93 N18G29    30.42R FOG
$$

ARZ022-023-033-042-044-211600-
CENTRAL ARKANSAS

CITY           SKY/WX    TMP DP  RH WIND       PRES   REMARKS
LITTLE ROCK    HVY RAIN  45  45 100 NE14      30.33R FOG
N LITTLE ROCK    N/A     43  42  99 NE6       30.31R
JACKSONVILLE   RAIN      44  44  99 N14       30.31F
SEARCY         RAIN      42  42 100 N12       30.35R
HOT SPRINGS    HVY RAIN  48  47  96 E6        30.32R FOG
RUSSELLVILLE   RAIN      41  40  96 NW5       30.37R
CLINTON        LGT RAIN  37  36  93 CALM      30.40R
$$

ARZ036-211600-
EAST ARKANSAS

CITY           SKY/WX    TMP DP  RH WIND       PRES   REMARKS
WEST MEMPHIS   LGT RAIN  45 N/A N/A NE22      30.34R
$$

ARZ050-053-066-070-073-211600-
SOUTHWEST ARKANSAS

CITY           SKY/WX    TMP DP  RH WIND       PRES   REMARKS
ARKADELPHIA    HVY RAIN  50  49  96 CALM      30.38R FOG
CAMDEN         HVY RAIN  57  54  88 VRB5      30.30R
TEXARKANA      RAIN      55  54  96 NE8       30.24F FOG
EL DORADO      TSTM      57  57 100 N13G21    30.26R FOG
DE QUEEN       LGT RAIN  46  46 100 NE8       30.27F
$$

ARZ056-057-069-211600-
SOUTHEAST ARKANSAS

CITY           SKY/WX    TMP DP  RH WIND       PRES   REMARKS
PINE BLUFF     LGT RAIN  50  50 100 NE10      30.28S
STUTTGART      RAIN      46  44  93 NE22      30.30S
MONTICELLO     LGT RAIN  58  55  90 NE14G21   30.25S

$$






USA.gov is the U.S. government's official web portal to all federal, state and local government web resources and services.